Location: Red Deer
(52.2681°N, 113.8112°W)
Time: 07:53:50
(UTC-07:00)

ISS - Visible Passes

Search period start: 27 November 2021 00:00
Search period end: 07 December 2021 00:00
Orbit: 417 x 423 km, 51.6° (Epoch: 27 November)

Date Brightness Start Highest point End Pass type
(mag) Time Alt. Az. Time Alt. Az. Time Alt. Az.
27 Nov -3.8 18:23:13 10° W 18:26:37 79° S 18:27:25 49° E visible
27 Nov -0.3 20:00:02 10° W 20:00:24 12° W 20:00:24 12° W visible
28 Nov -3.6 17:36:05 10° WSW 17:39:28 71° S 17:42:07 16° E visible
28 Nov -2.3 19:12:52 10° W 19:15:05 38° W 19:15:05 38° W visible
29 Nov -3.8 18:25:41 10° W 18:29:05 81° S 18:29:47 53° ESE visible
29 Nov -0.2 20:02:32 10° W 20:02:46 11° W 20:02:46 11° W visible
30 Nov -3.7 17:38:29 10° W 17:41:53 83° S 17:44:31 16° E visible
30 Nov -2.1 19:15:19 10° W 19:17:30 34° WSW 19:17:30 34° WSW visible
01 Dec -3.5 18:28:05 10° W 18:31:27 64° SSW 18:32:15 45° SE visible
01 Dec -0.1 20:05:12 10° W 20:05:15 10° W 20:05:15 10° W visible
02 Dec -3.6 17:40:51 10° W 17:44:15 74° S 17:47:05 14° ESE visible
02 Dec -1.7 19:17:47 10° W 19:20:04 27° SW 19:20:04 27° SW visible
03 Dec -2.6 18:30:28 10° W 18:33:40 40° SSW 18:34:59 27° SSE visible
04 Dec -3.0 17:43:10 10° W 17:46:29 51° SSW 17:49:47 10° ESE visible
04 Dec -1.1 19:20:38 10° WSW 19:22:46 16° SW 19:23:02 16° SSW visible
05 Dec -1.4 18:32:59 10° W 18:35:41 22° SSW 18:38:16 10° SSE visible
06 Dec -1.8 17:45:31 10° W 17:48:32 30° SSW 17:51:31 10° SSE visible
